Weather History for Independence, KS

Change the Weather History Date:

Friday, March 14, 2014

  Actual Average (KCFV) Record (KCFV)
Temperature  
Mean Temperature 55 °F -  
Max Temperature 68 °F 53 °F 82 °F (2002)
Min Temperature 42 °F 32 °F 24 °F (1997)
Degree Days  
Heating Degree Days 10    
Growing Degree Days 5 (Base 50)    
Moisture  
Dew Point 27 °F    
Average Humidity 38    
Maximum Humidity 57    
Minimum Humidity 17    
Precipitation  
Precipitation 0.00 in - - ()
Sea Level Pressure  
Sea Level Pressure 29.94 in    
Wind  
Wind Speed 11 mph (SSW)    
Max Wind Speed 18 mph    
Max Gust Speed 21 mph    
Visibility 10 miles    
Events      
Averages and records for this station are not official NWS values.
T = Trace of Precipitation, MM = Missing Value Source: NWS Daily Summary

Daily Weather History Graph

Daily Weather History Graph

Search for Another Location

Airport:

Trip Planner

Search our weather history database for the weather conditions in past years. The results will help you decide how hot, cold, wet, or windy it might be!

Date:

Astronomy

Mar. 14, 2014 Rise Set
Actual Time 7:35 AM CDT 7:29 PM CDT
Civil Twilight 7:09 AM CDT 7:55 PM CDT
Nautical Twilight 6:39 AM CDT 8:25 PM CDT
Astronomical Twilight 6:09 AM CDT 8:56 PM CDT
Moon 5:54 PM CDT (3/14) 6:14 AM CDT (3/14)
Length of Visible Light 12h 45m
Length of Day
11h 54m
Waxing Gibbous, 96% of the Moon is Illuminated
Mar 14
Waxing Gibbous
Mar 16
Full
Mar 23
Last Quarter
Mar 30
New
Apr 7
First Quarter

Hourly Weather History & Observations

Time (CDT) Temp. Windchill Dew Point Humidity Pressure Visibility Wind Dir Wind Speed Gust Speed Precip Events Conditions
12:15 AM 50.0 °F - 24.8 °F 37% 29.91 in 10.0 mi South 15.0 mph - N/A   Clear
12:35 AM 50.0 °F - 26.6 °F 40% 29.91 in 10.0 mi South 13.8 mph - N/A   Clear
12:55 AM 50.0 °F - 26.6 °F 40% 29.90 in 10.0 mi South 18.4 mph - N/A   Clear
1:15 AM 50.0 °F - 26.6 °F 40% 29.90 in 10.0 mi South 16.1 mph - N/A   Clear
1:35 AM 50.0 °F - 26.6 °F 40% 29.90 in 10.0 mi South 16.1 mph - N/A   Clear
1:55 AM 50.0 °F - 26.6 °F 40% 29.90 in 10.0 mi South 15.0 mph - N/A   Clear
2:15 AM 48.2 °F - 26.6 °F 43% 29.90 in 10.0 mi South 17.3 mph - N/A   Clear
2:35 AM 48.2 °F - 26.6 °F 43% 29.90 in 10.0 mi SSW 15.0 mph - N/A   Clear
2:55 AM 46.4 °F 41.1 °F 28.4 °F 50% 29.90 in 10.0 mi South 11.5 mph - N/A   Clear
3:15 AM 46.4 °F 40.7 °F 28.4 °F 50% 29.90 in 10.0 mi South 12.7 mph - N/A   Clear
3:35 AM 44.6 °F 38.8 °F 28.4 °F 53% 29.89 in 10.0 mi South 11.5 mph - N/A   Clear
3:55 AM 46.4 °F 41.5 °F 28.4 °F 50% 29.89 in 10.0 mi South 10.4 mph - N/A   Clear
4:15 AM 46.4 °F 41.5 °F 28.4 °F 50% 29.88 in 10.0 mi South 10.4 mph - N/A   Clear
4:35 AM 44.6 °F 38.4 °F 28.4 °F 53% 29.87 in 10.0 mi South 12.7 mph - N/A   Clear
4:55 AM 44.6 °F 38.4 °F 30.2 °F 57% 29.87 in 10.0 mi South 12.7 mph - N/A   Clear
5:15 AM 44.6 °F 38.4 °F 30.2 °F 57% 29.87 in 10.0 mi South 12.7 mph - N/A   Clear
5:35 AM 44.6 °F 38.4 °F 30.2 °F 57% 29.87 in 10.0 mi South 12.7 mph - N/A   Clear
5:55 AM 44.6 °F 38.8 °F 30.2 °F 57% 29.87 in 10.0 mi South 11.5 mph 16.1 mph N/A   Clear
6:15 AM 46.4 °F 40.7 °F 30.2 °F 53% 29.86 in 10.0 mi South 12.7 mph - N/A   Clear
6:35 AM 46.4 °F 41.1 °F 30.2 °F 53% 29.86 in 10.0 mi South 11.5 mph - N/A   Clear
6:55 AM 46.4 °F 41.5 °F 30.2 °F 53% 29.86 in 10.0 mi South 10.4 mph - N/A   Clear
7:15 AM 46.4 °F 41.5 °F 30.2 °F 53% 29.86 in 10.0 mi South 10.4 mph - N/A   Clear
7:35 AM 46.4 °F 41.5 °F 32.0 °F 57% 29.87 in 10.0 mi South 10.4 mph - N/A   Clear
7:55 AM 46.4 °F 42.9 °F 32.0 °F 57% 29.88 in 10.0 mi South 6.9 mph - N/A   Clear
8:15 AM 48.2 °F - 32.0 °F 54% 29.88 in 10.0 mi South 10.4 mph - N/A   Scattered Clouds
8:35 AM 50.0 °F - 32.0 °F 50% 29.89 in 10.0 mi SSW 12.7 mph - N/A   Mostly Cloudy
8:55 AM 51.8 °F - 30.2 °F 44% 29.91 in 10.0 mi SW 12.7 mph - N/A   Overcast
9:15 AM 51.8 °F - 32.0 °F 47% 29.92 in 10.0 mi SW 9.2 mph - N/A   Overcast
9:35 AM 53.6 °F - 30.2 °F 41% 29.93 in 10.0 mi SW 11.5 mph 16.1 mph N/A   Mostly Cloudy
9:55 AM 53.6 °F - 30.2 °F 41% 29.93 in 10.0 mi SW 10.4 mph - N/A   Mostly Cloudy
10:15 AM 57.2 °F - 30.2 °F 36% 29.94 in 10.0 mi SW 15.0 mph 20.7 mph N/A   Scattered Clouds
10:35 AM 57.2 °F - 30.2 °F 36% 29.95 in 10.0 mi WSW 12.7 mph 18.4 mph N/A   Clear
10:55 AM 59.0 °F - 28.4 °F 31% 29.95 in 10.0 mi WSW 12.7 mph - N/A   Clear
11:15 AM 57.2 °F - 28.4 °F 33% 29.96 in 10.0 mi West 12.7 mph - N/A   Scattered Clouds
11:35 AM 59.0 °F - 28.4 °F 31% 29.96 in 10.0 mi WSW 9.2 mph - N/A   Overcast
11:55 AM 60.8 °F - 28.4 °F 29% 29.96 in 10.0 mi West 10.4 mph - N/A   Mostly Cloudy
12:15 PM 60.8 °F - 28.4 °F 29% 29.96 in 10.0 mi NW 9.2 mph - N/A   Scattered Clouds
12:35 PM 62.6 °F - 28.4 °F 27% 29.97 in 10.0 mi NNW 11.5 mph - N/A   Scattered Clouds
12:55 PM 62.6 °F - 28.4 °F 27% 29.97 in 10.0 mi NNW 8.1 mph 16.1 mph N/A   Mostly Cloudy
1:15 PM 62.6 °F - 28.4 °F 27% 29.97 in 10.0 mi North 5.8 mph - N/A   Scattered Clouds
1:35 PM 64.4 °F - 26.6 °F 24% 29.97 in 10.0 mi North 12.7 mph 17.3 mph N/A   Clear
1:55 PM 64.4 °F - 26.6 °F 24% 29.97 in 10.0 mi NNW 6.9 mph - N/A   Clear
2:15 PM 64.4 °F - 26.6 °F 24% 29.97 in 10.0 mi NNW 9.2 mph 16.1 mph N/A   Clear
2:35 PM 66.2 °F - 26.6 °F 23% 29.97 in 10.0 mi North 11.5 mph 17.3 mph N/A   Clear
2:55 PM 66.2 °F - 26.6 °F 23% 29.96 in 10.0 mi North 9.2 mph - N/A   Clear
3:15 PM 66.2 °F - 26.6 °F 23% 29.96 in 10.0 mi NNE 6.9 mph - N/A   Clear
3:35 PM 64.4 °F - 26.6 °F 24% 29.96 in 10.0 mi Calm Calm - N/A   Clear
3:55 PM 68.0 °F - 26.6 °F 21% 29.96 in 7.0 mi North 6.9 mph - N/A   Clear
4:15 PM 66.2 °F - 24.8 °F 21% 29.96 in 10.0 mi Calm Calm - N/A   Clear
4:35 PM 68.0 °F - 26.6 °F 21% 29.96 in 10.0 mi NNE 3.5 mph - N/A   Clear
4:55 PM 68.0 °F - 23.0 °F 18% 29.96 in 10.0 mi North 6.9 mph - N/A   Clear
5:15 PM 68.0 °F - 21.2 °F 17% 29.96 in 10.0 mi NNE 3.5 mph - N/A   Clear
5:35 PM 66.2 °F - 23.0 °F 19% 29.95 in 10.0 mi NE 5.8 mph - N/A   Clear
5:55 PM 66.2 °F - 21.2 °F 18% 29.95 in 10.0 mi Calm Calm - N/A   Clear
6:15 PM 66.2 °F - 23.0 °F 19% 29.95 in 10.0 mi Calm Calm - N/A   Clear
6:35 PM 64.4 °F - 24.8 °F 22% 29.95 in 10.0 mi Calm Calm - N/A   Clear
6:55 PM 64.4 °F - 23.0 °F 21% 29.96 in 10.0 mi Calm Calm - N/A   Clear
7:15 PM 62.6 °F - 23.0 °F 22% 29.96 in 10.0 mi Calm Calm - N/A   Clear
7:35 PM 60.8 °F - 24.8 °F 25% 29.97 in 10.0 mi Calm Calm - N/A   Clear
7:55 PM 59.0 °F - 24.8 °F 27% 29.97 in 10.0 mi Calm Calm - N/A   Clear
8:15 PM 55.4 °F - 26.6 °F 33% 29.98 in 10.0 mi Calm Calm - N/A   Clear
8:35 PM 55.4 °F - 26.6 °F 33% 29.99 in 10.0 mi ENE 3.5 mph - N/A   Clear
8:55 PM 53.6 °F - 26.6 °F 35% 29.99 in 10.0 mi ENE 3.5 mph - N/A   Clear
9:15 PM 51.8 °F - 23.0 °F 33% 29.99 in 10.0 mi NE 3.5 mph - N/A   Clear
9:35 PM 53.6 °F - 24.8 °F 33% 30.00 in 10.0 mi NE 4.6 mph - N/A   Clear
9:55 PM 44.6 °F - 30.2 °F 57% 30.00 in 10.0 mi Calm Calm - N/A   Clear
10:15 PM 48.2 °F - 26.6 °F 43% 30.01 in 10.0 mi Calm Calm - N/A   Clear
10:35 PM 44.6 °F - 28.4 °F 53% 30.01 in 10.0 mi Calm Calm - N/A   Clear
10:55 PM 44.6 °F 43.1 °F 28.4 °F 53% 30.00 in 10.0 mi NE 3.5 mph - N/A   Clear
11:15 PM 44.6 °F 43.1 °F 26.6 °F 49% 30.00 in 10.0 mi ENE 3.5 mph - N/A   Clear
11:35 PM 42.8 °F - 26.6 °F 53% 30.01 in 10.0 mi Calm Calm - N/A   Clear
11:55 PM 44.6 °F 43.1 °F 26.6 °F 49% 30.00 in 10.0 mi NE 3.5 mph - N/A   Clear